Ёлётен

Туркменистан     37°17′48″N   62°21′14″E
темп.,
°C
ветер,
м/с
пор.,
м/с
влажн.,
%
обл.,
%
осадки,
мм/ч
давл.,
гПа
погр.,
м
16 мая, вс
вс1623:00+25ссз46130 0.0 101194
02:00+23ссз45140 0.0 101068
05:00+21с44180 0.0 101146
08:00+23ссз33190 0.0 1012212
11:00+28сз44160 0.0 10121522
14:00+31ссз54130 0.0 10102257
17:00+32ссз54120 0.0 10092334
20:00+28сз46140 0.0 101078
17 мая, пн
пн1723:00+26сз33130 0.0 101122
02:00+24сз44130 0.0 101028
05:00+21с23160 0.0 101015
08:00+25ссв23140 0.0 1012197
11:00+31ссз33101 0.0 10121809
14:00+33сз4370 0.0 10102525
17:00+34ссз5460 0.0 10092610
20:00+29ссз4590 0.0 100945
18 мая, вт
вт1823:00+26ссз33110 0.0 100916
02:00+24с22140 0.0 100811
05:00+22вюв11170 0.0 100811
08:00+27ю22120 0.0 1009158
11:00+32зюз1280 0.0 10081543
14:00+35зсз3470 0.0 10072684
17:00+35сз4470 0.0 10053117
20:00+31с44100 0.0 100629
19 мая, ср
ср1923:00+28ссв44100 0.0 100630
02:00+26всв23100 0.0 100511
05:00+24вюв22129 0.0 100511
08:00+28юв2310100 0.0 1007140
11:00+34с126100 0.0 10061359
14:00+37ссз6565 0.0 10053005
17:00+36ссз87669 0.0 10053019
20:00+32ссв34893 0.0 100659
20 мая, чт
чт2023:00+29с48105 0.0 1007133
02:00+26с221215 0.0 100611
05:00+24зсз331318 0.0 100813
08:00+28зсз7111681 0.0 1010503
11:00+33сз910134 0.0 10101568
14:00+36сз99992 0.0 10094149
17:00+35сз99100 0.0 10094215
20:00+32сз7121425 0.0 1010311